Hourly Data Report for September 01, 2017

All times are specified in Local Standard Time (LST). Add 1 hour to adjust for Daylight Saving Time where and when it is observed.

SUSSEX FOUR CORNERS
NEW BRUNSWICK

45°44'30.048" N
65°31'44.039" W
47.00 m
8105210
71656
ASF

Download Data

Hourly Data (September 2017)
Hourly Data Report for September 1, 2017
Temp Definition
°C
Dew Point Temp Definition
°C
Rel Hum Definition
%
Wind Dir Definition
10's deg

Wind Spd Definition
km/h
Visibility Definition
km
Stn Press Definition
kPa
Hmdx Definition


Wind Chill Definition


Weather Definition


TIME
00:00 11.6 8.4 81 26 10   99.96     LegendNANA
01:00 10.9 8.1 83 26 10   99.98     LegendNANA
02:00 10.1 7.8 86 27 8   99.98     LegendNANA
03:00 8.6 7.3 92 21 12   99.99     LegendNANA
04:00 8.7 7.7 93 23 14   99.98     LegendNANA
05:00 8.6 7.4 92 23 17   100.00     LegendNANA
06:00 8.5 7.3 92 24 12   100.02     LegendNANA
07:00 10.0 7.9 86 23 16   100.05     LegendNANA
08:00 11.6 7.8 77 25 14   100.06     LegendNANA
09:00 12.9 7.0 67 26 17   100.07     LegendNANA
10:00 13.0 6.2 64 26 16   100.06     LegendNANA
11:00 13.7 5.9 59 27 13   100.03     LegendNANA
12:00 14.5 5.0 53 23 21   100.02     LegendNANA
13:00 14.5 4.2 50 24 17   100.00     LegendNANA
14:00 13.7 5.4 57 25 21   100.03     LegendNANA
15:00 11.0 7.6 80 28 14   100.07     LegendNANA
16:00 11.3 6.1 71 25 22   100.12     LegendNANA
17:00 10.7 6.8 77 24 14   100.16     LegendNANA
18:00 10.2 6.9 80 24 23   100.21     LegendNANA
19:00 9.5 7.5 88 25 18   100.27     LegendNANA
20:00 9.7 7.9 88 25 17   100.34     LegendNANA
21:00 10.2 7.9 85 27 15   100.42     LegendNANA
22:00 9.6 7.3 86 28 8   100.46     LegendNANA
23:00 9.9 7.5 85 25 14   100.55     LegendNANA

Notes on Data Quality.

Legend

  • E = Estimated
  • M = Missing
  • NA = Not Available
  • ‡ = Partner data that is not subject to review by the National Climate Archives
Date modified: